Regional Weather Roundup
Issued by NWS Kansas City/Pleasant Hill, MO

Home | Current Version | Previous Version | Text Only | Print | Product List | Glossary On
Versions: 1 2 3 4 5 6 7 8 9 10 11 12 13 14 15 16 17 18 19 20 21 22 23 24 25 26 27 28 29 30 31 32 33 34 35 36 37 38 39 40 41 42 43 44 45 46 47 48 49 50
000
ASUS43 KEAX 230210
RWREAX

WEATHER ROUNDUP FOR EASTERN KANSAS AND NORTHWEST MISSOURI
NATIONAL WEATHER SERVICE KANSAS CITY/PLEASANT HILL MO
900 PM CDT SUN OCT 22 2017

KSZ040-057-103>105-MOZ028-029-037-043-230300-
...KANSAS CITY METROPOLITAN AREA...

CITY           SKY/WX    TMP DP  RH WIND       PRES   REMARKS
K.C. INTL      PTCLDY    48  40  73 S9        30.07F
K.C. DOWNTOWN  CLEAR     54  47  77 CALM      30.08F
LEES SUMMIT    CLEAR     53  40  61 SE7       30.09F
OLATHE - IXD   CLEAR     52  40  63 SE8       30.09F
OLATHE - OJC   CLEAR     48  43  82 SE3       30.08F
LAWRENCE       CLEAR     45  44  97 CALM      30.07F

$$

MOZ001>008-011>017-020>025-030>033-038>040-044>046-053-054-230300-
...NORTHERN AND CENTRAL MISSOURI...

CITY           SKY/WX    TMP DP  RH WIND       PRES   REMARKS
ST. JOSEPH     CLEAR     47  46  97 SW3       30.06F
MOSBY          CLEAR     46  45  93 CALM      30.08F
WARRENSBURG    CLEAR     50  43  76 S3        30.09F
WHITEMAN AFB   PTCLDY    49  48  96 SW3       30.05F
CLINTON        CLEAR     45  45 100 MISG      30.10F
SEDALIA        PTCLDY    53  52  96 CALM      30.10F
WARSAW         NOT AVBL
CHILLICOTHE      N/A     49  48  97 CALM      30.09F
KIRKSVILLE     CLOUDY    49  49 100 CALM      30.08F

$$

MOZ041-047>049-056>058-063>065-088>090-097-230300-
...EASTERN AND SOUTHERN MISSOURI...

CITY           SKY/WX    TMP DP  RH WIND       PRES   REMARKS
ST. LOUIS INTL LGT RAIN  52  51  97 N8        30.04F
SPIRIT OF STL  LGT RAIN  53  52  96 N6        30.03F
COLUMBIA       CLOUDY    52  51  97 W6        30.08S
JEFFERSON CITY CLOUDY    53  50  89 CALM      30.08S
ROLLA          LGT RAIN  50  50 100 NW9       30.07S
OSAGE BEACH    CLOUDY    52  50  93 W5        30.10S
SPRINGFIELD    CLOUDY    51  50  96 SW3       30.10S
BRANSON        CLOUDY    50  48  93 CALM      30.12F
JOPLIN         CLEAR     48  48 100 MISG      30.12S
WEST PLAINS    LGT RAIN  51  49  92 N7        30.07S

$$

IAZ060-094-KSZ022-034>040-054-083-096-NEZ052-066-093-230300-
...KANSAS...SOUTHEAST NEBRASKA AND IOWA...

CITY           SKY/WX    TMP DP  RH WIND       PRES   REMARKS
TOPEKA         CLEAR     50  45  83 CALM      30.06F
MANHATTAN      CLEAR     46  38  73 CALM      30.06F
EMPORIA        CLEAR     49  38  65 S8        30.08F
CHANUTE        CLEAR     48  43  82 SE5       30.10F
WICHITA        PTCLDY    51  43  74 S9        30.08F
OMAHA          CLEAR     57  33  40 S6        30.00S
LINCOLN        PTCLDY    51  34  52 S6        30.02R
FALLS CITY     CLEAR     55  34  45 S8        30.03F
LAMONI         CLOUDY    52  43  71 S8        30.05F
DES MOINES     PTCLDY    52  41  66 S9        30.03F

$$




USA.gov is the U.S. government's official web portal to all federal, state and local government web resources and services.